• En España
  • Lista de países
  • Para 7 días
  • Temperatura del agua
  • Mapa Satelital
  • El tiempo en el mapa
  • Informadores
  • user-avatar
    Iniciar sesión

    Tiempo cada hora Zarka

    Hoy, 19 Septiembre, Miércoles

    Tiempo Temperatura Precipitaciones Viento Presión Humedad
    00:00 +24°C° 0 mm 3 mps 703 mmHg 65%
    01:00 +24°C° 0 mm 2 mps 703 mmHg 67%
    02:00 +23°C° 0 mm 2 mps 703 mmHg 70%
    03:00 +23°C° 0 mm 2 mps 703 mmHg 71%
    04:00 +21°C° 0 mm 2 mps 703 mmHg 73%
    05:00 +21°C° 0 mm 2 mps 703 mmHg 75%
    06:00 +23°C° 0 mm 2 mps 703 mmHg 67%
    07:00 +25°C° 0 mm 3 mps 703 mmHg 59%
    08:00 +26°C° 0 mm 3 mps 704 mmHg 52%
    09:00 +27°C° 0 mm 3 mps 704 mmHg 44%
    10:00 +29°C° 0 mm 4 mps 704 mmHg 37%
    11:00 +32°C° 0 mm 4 mps 704 mmHg 30%
    12:00 +32°C° 0 mm 4 mps 704 mmHg 28%
    13:00 +33°C° 0 mm 5 mps 704 mmHg 26%
    14:00 +34°C° 0 mm 5 mps 704 mmHg 24%
    15:00 +33°C° 0 mm 5 mps 704 mmHg 26%
    16:00 +32°C° 0 mm 5 mps 703 mmHg 29%
    17:00 +32°C° 0 mm 5 mps 703 mmHg 31%
    18:00 +30°C° 0 mm 4 mps 703 mmHg 37%
    19:00 +28°C° 0 mm 4 mps 704 mmHg 42%
    20:00 +27°C° 0 mm 3 mps 704 mmHg 47%
    21:00 +27°C° 0 mm 3 mps 704 mmHg 51%
    22:00 +26°C° 0 mm 2 mps 704 mmHg 54%
    23:00 +25°C° 0 mm 2 mps 704 mmHg 58%

    Mañana, 20 Septiembre, Jueves

    Tiempo Temperatura Precipitaciones Viento Presión Humedad
    00:00 +25°C° 0 mm 2 mps 704 mmHg 60%
    01:00 +24°C° 0 mm 2 mps 704 mmHg 63%
    02:00 +23°C° 0 mm 2 mps 703 mmHg 66%
    03:00 +23°C° 0 mm 2 mps 703 mmHg 69%
    04:00 +23°C° 0 mm 2 mps 703 mmHg 71%
    05:00 +21°C° 0 mm 2 mps 703 mmHg 74%
    06:00 +23°C° 0 mm 2 mps 704 mmHg 67%
    07:00 +25°C° 0 mm 2 mps 704 mmHg 61%
    08:00 +26°C° 0 mm 2 mps 705 mmHg 54%
    09:00 +27°C° 0 mm 3 mps 705 mmHg 46%
    10:00 +29°C° 0 mm 3 mps 705 mmHg 38%
    11:00 +31°C° 0 mm 3 mps 705 mmHg 31%
    12:00 +31°C° 0 mm 3 mps 705 mmHg 28%
    13:00 +33°C° 0 mm 4 mps 705 mmHg 26%
    14:00 +34°C° 0 mm 4 mps 704 mmHg 23%
    15:00 +33°C° 0 mm 4 mps 704 mmHg 26%
    16:00 +33°C° 0 mm 5 mps 704 mmHg 28%
    17:00 +32°C° 0 mm 5 mps 704 mmHg 31%
    18:00 +30°C° 0 mm 4 mps 704 mmHg 37%
    19:00 +28°C° 0 mm 4 mps 704 mmHg 43%
    20:00 +27°C° 0 mm 4 mps 704 mmHg 49%
    21:00 +26°C° 0 mm 3 mps 704 mmHg 53%
    22:00 +26°C° 0 mm 3 mps 704 mmHg 56%
    23:00 +25°C° 0 mm 3 mps 704 mmHg 59%

    Pasado mañana, 21 Septiembre, Viernes

    Tiempo Temperatura Precipitaciones Viento Presión Humedad
    00:00 +25°C° 0 mm 2 mps 704 mmHg 62%
    01:00 +24°C° 0 mm 2 mps 703 mmHg 64%
    02:00 +24°C° 0 mm 2 mps 703 mmHg 66%
    03:00 +23°C° 0 mm 2 mps 703 mmHg 67%
    04:00 +23°C° 0 mm 2 mps 703 mmHg 68%
    05:00 +21°C° 0 mm 2 mps 703 mmHg 68%
    06:00 +23°C° 0 mm 2 mps 704 mmHg 61%
    07:00 +25°C° 0 mm 1 mps 704 mmHg 53%
    08:00 +26°C° 0 mm 1 mps 705 mmHg 46%
    09:00 +27°C° 0 mm 2 mps 705 mmHg 38%
    10:00 +29°C° 0 mm 2 mps 705 mmHg 31%
    11:00 +31°C° 0 mm 2 mps 705 mmHg 24%
    12:00 +33°C° 0 mm 3 mps 705 mmHg 23%
    13:00 +34°C° 0 mm 3 mps 704 mmHg 21%
    14:00 +34°C° 0 mm 4 mps 704 mmHg 20%
    15:00 +34°C° 0 mm 4 mps 704 mmHg 22%
    16:00 +33°C° 0 mm 4 mps 704 mmHg 24%
    17:00 +33°C° 0 mm 4 mps 703 mmHg 25%
    18:00 +30°C° 0 mm 4 mps 704 mmHg 31%
    19:00 +29°C° 0 mm 4 mps 704 mmHg 36%
    20:00 +28°C° 0 mm 3 mps 704 mmHg 42%
    21:00 +27°C° 0 mm 3 mps 704 mmHg 45%
    22:00 +26°C° 0 mm 3 mps 704 mmHg 49%
    23:00 +25°C° 0 mm 2 mps 704 mmHg 52%

    22 Septiembre, Sábado

    Tiempo Temperatura Precipitaciones Viento Presión Humedad
    00:00 +25°C° 0 mm 2 mps 704 mmHg 55%
    01:00 +24°C° 0 mm 2 mps 703 mmHg 57%
    02:00 +24°C° 0 mm 2 mps 703 mmHg 59%
    03:00 +23°C° 0 mm 2 mps 703 mmHg 60%
    04:00 +23°C° 0 mm 2 mps 703 mmHg 62%
    05:00 +23°C° 0 mm 2 mps 704 mmHg 63%
    06:00 +24°C° 0 mm 2 mps 704 mmHg 56%
    07:00 +25°C° 0 mm 2 mps 704 mmHg 49%
    08:00 +26°C° 0 mm 2 mps 705 mmHg 42%
    09:00 +28°C° 0 mm 2 mps 705 mmHg 36%
    10:00 +30°C° 0 mm 2 mps 705 mmHg 30%
    11:00 +31°C° 0 mm 3 mps 705 mmHg 23%
    12:00 +33°C° 0 mm 3 mps 705 mmHg 22%
    13:00 +34°C° 0 mm 3 mps 704 mmHg 21%
    14:00 +35°C° 0 mm 3 mps 704 mmHg 19%
    15:00 +34°C° 0 mm 4 mps 704 mmHg 21%
    16:00 +34°C° 0 mm 4 mps 704 mmHg 23%
    17:00 +33°C° 0 mm 4 mps 704 mmHg 26%
    18:00 +32°C° 0 mm 4 mps 704 mmHg 32%
    19:00 +29°C° 0 mm 4 mps 704 mmHg 39%
    20:00 +28°C° 0 mm 3 mps 704 mmHg 45%
    21:00 +27°C° 0 mm 3 mps 704 mmHg 50%
    22:00 +26°C° 0 mm 3 mps 704 mmHg 55%
    23:00 +26°C° 0 mm 3 mps 704 mmHg 60%

    23 Septiembre, Domingo

    Tiempo Temperatura Precipitaciones Viento Presión Humedad
    00:00 +25°C° 0 mm 2 mps 704 mmHg 62%
    01:00 +24°C° 0 mm 2 mps 704 mmHg 65%
    02:00 +24°C° 0 mm 2 mps 704 mmHg 68%
    03:00 +23°C° 0 mm 2 mps 704 mmHg 69%
    04:00 +23°C° 0 mm 2 mps 704 mmHg 69%
    05:00 +23°C° 0 mm 2 mps 704 mmHg 70%
    06:00 +24°C° 0 mm 2 mps 705 mmHg 64%
    07:00 +25°C° 0 mm 2 mps 705 mmHg 57%
    08:00 +26°C° 0 mm 2 mps 705 mmHg 51%
    09:00 +27°C° 0 mm 3 mps 705 mmHg 43%
    10:00 +29°C° 0 mm 3 mps 705 mmHg 35%
    11:00 +31°C° 0 mm 3 mps 705 mmHg 28%
    12:00 +33°C° 0 mm 3 mps 705 mmHg 25%
    13:00 +33°C° 0 mm 4 mps 705 mmHg 23%
    14:00 +34°C° 0 mm 4 mps 704 mmHg 21%
    15:00 +34°C° 0 mm 4 mps 704 mmHg 24%
    16:00 +33°C° 0 mm 4 mps 704 mmHg 27%
    17:00 +32°C° 0 mm 4 mps 704 mmHg 29%
    18:00 +30°C° 0 mm 4 mps 704 mmHg 37%
    19:00 +28°C° 0 mm 4 mps 705 mmHg 44%
    20:00 +27°C° 0 mm 3 mps 705 mmHg 52%
    21:00 +26°C° 0 mm 3 mps 705 mmHg 56%
    22:00 +26°C° 0 mm 3 mps 704 mmHg 60%
    23:00 +25°C° 0 mm 2 mps 704 mmHg 65%

    24 Septiembre, Lunes

    Tiempo Temperatura Precipitaciones Viento Presión Humedad
    00:00 +24°C° 0 mm 2 mps 704 mmHg 67%
    01:00 +24°C° 0 mm 2 mps 704 mmHg 69%
    02:00 +23°C° 0 mm 2 mps 704 mmHg 71%
    03:00 +23°C° 0 mm 2 mps 704 mmHg 72%
    04:00 +21°C° 0 mm 2 mps 704 mmHg 73%
    05:00 +22°C° 0 mm 1 mps 704 mmHg 73%
    06:00 +23°C° 0 mm 1 mps 704 mmHg 65%
    07:00 +24°C° 0 mm 1 mps 704 mmHg 58%
    08:00 +26°C° 0 mm 1 mps 705 mmHg 50%
    09:00 +27°C° 0 mm 1 mps 705 mmHg 40%
    10:00 +29°C° 0 mm 1 mps 705 mmHg 31%
    11:00 +29°C° 0 mm 0 mps 705 mmHg 22%
    12:00 +32°C° 0 mm 1 mps 704 mmHg 19%
    13:00 +33°C° 0 mm 1 mps 704 mmHg 17%
    14:00 +36°C° 0 mm 2 mps 704 mmHg 14%
    15:00 +35°C° 0 mm 2 mps 703 mmHg 15%
    16:00 +35°C° 0 mm 3 mps 703 mmHg 17%
    17:00 +34°C° 0 mm 3 mps 703 mmHg 18%
    18:00 +33°C° 0 mm 3 mps 703 mmHg 24%
    19:00 +30°C° 0 mm 3 mps 703 mmHg 30%
    20:00 +29°C° 0 mm 2 mps 703 mmHg 35%
    21:00 +28°C° 0 mm 2 mps 703 mmHg 41%
    22:00 +27°C° 0 mm 2 mps 703 mmHg 47%
    23:00 +26°C° 0 mm 2 mps 703 mmHg 53%
    Mostrar más